www.pogodaiklimat.ru

Погода и климат >> Архив погоды >> Кувейт >> Эль-Джахра


ПОГОДА в Эль-Джахра

  • Прогноз погоды в Эль-Джахра
  • Монитор погоды в Эль-Джахра

АРХИВ ПОГОДЫ в Эль-Джахра

Время (UTC), дата Ветер
(напр.,м/с)
 
Видим.   Явления Облачность Т
(С)
Тd
(С)
f
(%)
Тe
(С)
Тes
(С)
Комфортность P
(гПа)
Po
(гПа)
Тmin
(С)
Tmax
(С)
R
(мм)
R24
(мм)
S
(см)
18 14.05 З 2-3
{11}
н/о н/о +35.2 -2.9 9 +31 +31 жарко 1005.6 999.5
21 14.05 СЗ 4-8
{9}
н/о н/о +34.4 -0.9 11 +31 +31 жарко 1005.6 999.5 +25.9 +43.7
00 15.05 С 4-9
{12}
н/о н/о +32.9 +0.5 13 +30 +30 жарко 1004.8 998.6
03 15.05 СЗ 3-7
{9}
н/о н/о +31.1 +2.0 16 +29 +29 жарко 1006.2 1000.0
06 15.05 СЗ 3-5
{9}
н/о н/о +38.1 -0.1 9 +34 +34 очень
жарко
1007.2 1001.1
09 15.05 СЗ 5-10
{11}
н/о н/о +41.7 -6.0 5 +37 +37 очень
жарко
1005.6 999.6
12 15.05 З 6-12
{13}
н/о н/о +42.5 -6.6 4 +38 +38 очень
жарко
1003.6 997.6
15 15.05 З 5-9
{13}
н/о н/о +40.3 -7.7 5 +36 +36 очень
жарко
1003.1 997.1
18 15.05 З 3-7
{13}
н/о н/о +36.0 -5.8 7 +32 +32 жарко 1004.9 998.8
21 15.05 З 4-7
{7}
н/о н/о +33.8 -3.9 9 +30 +30 жарко 1005.0 998.9 +30.4 +43.1
00 16.05 З 3-6
{8}
н/о н/о +31.8 -3.7 10 +28 +28 жарко 1004.1 997.9
03 16.05 З 2-4
{8}
н/о н/о +30.8 -1.6 12 +28 +28 жарко 1004.9 998.7
06 16.05 СЗ 2-3
{8}
н/о н/о +38.2 +1.3 10 +35 +35 очень
жарко
1005.8 999.7
09 16.05 СЗ 2-3
{6}
н/о н/о +41.9 -2.8 6 +38 +38 очень
жарко
1004.7 998.7
12 16.05 СВ 5-7
{9}
н/о н/о +42.7 -1.2 7 +39 +39 очень
жарко
1003.7 997.7
15 16.05 СВ 3-4
{8}
н/о н/о +39.2 -2.5 7 +35 +35 очень
жарко
1003.4 997.4
18 16.05 ЮЗ 1-2
{8}
н/о н/о +33.3 +0.9 13 +30 +30 жарко 1005.3 999.2
21 16.05 ЮЗ 2-2
{4}
н/о н/о +29.2 -0.7 14 +26 +26 жарко 1005.5 999.3 +29.1 +43.5
00 17.05 Ю 1-2
{4}
н/о н/о +27.7 +0.2 17 +26 +26 жарко 1005.0 998.7
03 17.05 ЮЗ 2-4
{4}
н/о н/о +27.2 +3.1 21 +26 +26 жарко 1006.1 999.8
06 17.05 Ю 2-4
{7}
н/о н/о +38.3 -1.9 8 +34 +34 очень
жарко
1006.7 1000.6
09 17.05 З 2-5
{7}
н/о н/о +43.0 -9.1 4 +39 +39 очень
жарко
1005.8 999.8
12 17.05 В 4-7
{8}
н/о н/о +42.1 +8.1 13 +40 +40 очень
жарко
1003.5 997.5
15 17.05 ЮВ 4-7
{9}
н/о н/о +35.3 +12.2 25 +35 +35 очень
жарко
1003.1 997.0
18 17.05 В 2-3
{9}
н/о н/о +29.8 +17.4 47 +34 +34 очень
душно
1005.5 999.3
21 17.05 ЮВ 1-2
{4}
н/о н/о +27.1 +18.4 59 +32 +32 очень
душно
1005.5 999.2 +25.8 +44.3
00 18.05 СВ 2-2
{4}
н/о н/о +25.2 +17.2 61 +29 +29 душно 1004.8 998.5
03 18.05 СВ 3-4
{4}
н/о н/о +27.1 +17.6 56 +31 +31 душно 1005.1 998.8
06 18.05 В 3-5
{6}
н/о н/о +34.4 +19.8 42 +40 +40 очень
душно
1006.5 1000.4
09 18.05 СВ 5-9
{9}
н/о н/о +38.1 +17.0 29 +41 +41 опасность
перегрева
1005.5 999.4
12 18.05 В 3-6
{9}
н/о н/о +38.0 +12.0 21 +37 +37 очень
жарко
1004.2 998.2
15 18.05 ЮВ 3-6
{9}
н/о н/о +34.7 +12.7 27 +35 +35 очень
жарко
1003.8 997.7
18 18.05 СВ 2-3
{9}
н/о н/о +30.3 +22.3 62 +39 +39 очень
душно
1005.6 999.4
21 18.05 СВ 1-1
{4}
н/о н/о +27.7 +18.9 59 +33 +33 очень
душно
1005.7 999.4 +24.9 +39.2
00 19.05 В 2-3
{5}
н/о н/о +27.1 +18.9 61 +32 +32 очень
душно
1005.1 998.8
03 19.05 СВ 3-3
{4}
н/о н/о +28.3 +21.9 68 +36 +36 очень
душно
1005.6 999.3
06 19.05 ЮВ 3-6
{6}
н/о н/о +33.8 +14.8 32 +35 +35 очень
жарко
1007.0 1000.9
09 19.05 ЮВ 5-10
{10}
н/о н/о +39.0 +5.7 13 +36 +36 очень
жарко
1006.0 1000.0
12 19.05 В 5-9
{11}
н/о н/о +38.8 +12.3 21 +38 +38 очень
жарко
1004.4 998.4
15 19.05 ЮВ 4-8
{11}
н/о н/о +33.4 +14.8 33 +35 +35 душно 1004.6 998.5
18 19.05 ЮВ 3-5
{11}
н/о н/о +30.7 +14.2 37 +33 +33 душно 1007.3 1001.1
21 19.05 В 2-4
{6}
н/о н/о +28.7 +16.6 48 +32 +32 душно 1007.5 1001.2 +26.2 +41.2
00 20.05 ЮВ 2-3
{6}
н/о н/о +27.4 +17.3 54 +31 +31 душно 1006.7 1000.4
03 20.05 ЮВ 2-3
{4}
н/о н/о +27.7 +16.6 51 +31 +31 душно 1008.5 1002.2
06 20.05 ЮВ 3-6
{6}
н/о н/о +34.3 +13.2 28 +35 +35 очень
жарко
1009.7 1003.5
09 20.05 ЮВ 3-7
{8}
н/о н/о +38.4 +14.8 25 +39 +39 очень
душно
1008.6 1002.5
12 20.05 В 5-9
{10}
н/о н/о +38.6 +11.8 20 +38 +38 очень
жарко
1006.7 1000.6
15 20.05 ЮВ 4-8
{10}
н/о н/о +32.7 +11.7 28 +33 +33 жарко 1006.5 1000.3
18 20.05 Ю 3-5
{10}
н/о н/о +30.6 +11.7 31 +31 +31 жарко 1008.5 1002.3
21 20.05 С 4-13
{13}
н/о н/о +31.2 +11.0 29 +31 +31 жарко 1010.9 1004.7 +26.5 +40.5
00 21.05 Ю 2-3
{17}
н/о н/о +28.3 +12.5 38 +30 +30 жарко 1009.6 1003.3
03 21.05 Ю 1-2
{7}
н/о н/о +26.8 +14.2 46 +29 +29 жарко 1010.3 1004.0
06 21.05 В 1-2
{7}
н/о н/о +33.3 +13.0 29 +34 +34 очень
жарко
1010.9 1004.7
09 21.05 С 2-4
{5}
н/о н/о +37.6 +7.8 16 +35 +35 очень
жарко
1010.4 1004.3
12 21.05 ЮВ 2-5
{7}
н/о н/о +40.0 +8.1 15 +38 +38 очень
жарко
1008.4 1002.4
15 21.05 ЮВ 4-8
{10}
н/о н/о +32.2 +13.8 33 +34 +34 душно 1009.0 1002.8

 

Местоположение метеостанции Эль-Джахра (Кувейт): широта 29.32 долгота 47.67 высота над уровнем моря 55 м.

В архиве по умолчанию представлена погода в Эль-Джахра за последнюю неделю. Архивные данные за месяц целиком и за предыдущие месяцы, начиная с января 2011 года, Вы можете получить, выбрав интересующий диапазон дат из раскрывающегося списка и нажав кнопку "Ввод!".


*Определитесь, кто Вы:
робот инопланетянин человек

Внимание! Время в таблицах - всемирное. Для получения местного времени необходимо прибавить поправку, которая равна 3 ч.

Смотрите также архив погоды в соседних городах и на ближайших метеорологических станциях:

Погода в Сулайбии (Кувейт) (7 км)
Погода на Экспериментальной ферме (Кувейт) (26 км)
Погода в Минагише (Кувейт) (31 км)
Погода в Эль-Кувейте (Кувейт) (31 км)
Погода на Метеостанции Jal Aliyah (Кувейт) (33 км)
Погода в Кувейт Сити (Кувейт) (37 км)
Погода в Аль-Шуаиба (Кувейт) (42 км)
Погода на Метеостанции Sabriyah (Кувейт) (51 км)
Погода Остров Файлака (Кувейт) (61 км)
Погода на Метеостанции Mintribah (Кувейт) (63 км)

Пояснения к столбцам:

Ветер - указаны скорость ветра в м/с - средняя за 10 мин, порывы в срок и между сроками (в фигурных скобках) и направление, откуда дует ветер: С - северный, СВ - северо-восточный, В - восточный, ЮВ - юго-восточный, Ю - южный, ЮЗ - юго-западный, З - западный, СЗ - северо-западный.
Видимость - горизонтальная дальность видимости в метрах или километрах. При видимости от 1 до 10 км при отсутствии осадков обычно наблюдается дымка, при ухудшении видимости до 1 км и менее - туман. В сухую погоду видимость может ухудшаться дымом, пылью или мглою.
Явления - указаны атмосферные явления, наблюдавшиеся в срок или в последний час перед сроком; фигурными скобками обозначены явления, наблюдавшиеся между сроками (за 1-3 часа до срока); квадратными скобками обозначены град или гололедные отложения с указанием их диаметра в мм.
Облачность - указаны через наклонную черту общая и нижняя облачность в баллах и высота нижней границы облаков в метрах; квадратными скобками обозначены формы облаков: Ci - перистые, Cs - перисто-слоистые, Cc - перисто-кучевые, Ac - высококучевые, As - высокослоистые, Sc - слоисто-кучевые, Ns - слоисто-дождевые, Cu - кучевые, Cb - кучево-дождевые. Подробнее классификацию облаков см. в Атласе облаков (PDF).
T - Температура воздуха - температура, измеренная на высоте 2 м над землей.
Td - Температура точки росы - температура, при понижении до которой содержащийся в воздухе водяной пар достигнет насыщения.
f - Относительная влажность воздуха - влажноcть воздуха, измеренная на высоте 2 м над землей.
Te - Эффективная температура - температура, которую ощущает одетый по сезону человек в тени. Характеристика душности погоды. При расчете учитывается влияние влажности воздуха и скорости ветра на теплоощущения человека.
Tes - Эффективная температура на солнце - температура, которую ощущает человек, с поправкой на солнечный нагрев. Характеристика знойности погоды. Зависит от высоты солнца над горизонтом, облачности и скорости ветра. Ночью, в пасмурную погоду, а также при ветре 12 м/с и более поправка равна нулю.
P - Атмосферное давление - приведенное к уровню моря атмосферное давление.
Po - Атмосферное давление - измеренное на уровне метеостанции атмосферное давление.
Tmin - Минимальная температура - минимум температуры воздуха на высоте 2 м над землей.
Tmax - Максимальная температура - максимум температуры воздуха на высоте 2 м над землей.
R - Количество осадков - Количество выпавших осадков за период времени, мм. При наведении курсора мыши на число - период времени, за который выпало указанное количество осадков.
R24 - Количество осадков - Количество выпавших осадков за 24 часа, мм.
S - Снежный покров - Высота снежного покрова, см. При наведении курсора мыши на число - состояние снежного покрова и степень покрытия местности в баллах.